Weather History for Pompano Beach, FL

Change the Weather History Date:

Sunday, December 9, 2012

  Actual Average Record
Temperature  
Mean Temperature 75 °F -  
Max Temperature 80 °F 79 °F 87 °F (1948)
Min Temperature 70 °F 63 °F 45 °F (1959)
Cooling Degree Days 10    
Growing Degree Days 25 (Base 50)    
Moisture  
Dew Point 74 °F    
Average Humidity 93    
Maximum Humidity 100    
Minimum Humidity 79    
Precipitation  
Precipitation 0.01 in - - ()
Sea Level Pressure  
Sea Level Pressure 30.04 in    
Wind  
Wind Speed 7 mph (SSE)    
Max Wind Speed 10 mph    
Max Gust Speed -    
Visibility 10 miles    
Events Rain    
Averages and records for this station are not official NWS values.
T = Trace of Precipitation, MM = Missing Value Source: NWS Daily Summary

Daily Weather History Graph

Daily Weather History Graph

Search for Another Location

Airport:

Trip Planner

Search our weather history database for the weather conditions in past years. The results will help you decide how hot, cold, wet, or windy it might be!

Date:

Astronomy

Dec. 09, 2012 Rise Set
Actual Time 6:56 AM EST 5:29 PM EST
Civil Twilight 6:31 AM EST 5:54 PM EST
Nautical Twilight 6:02 AM EST 6:23 PM EST
Astronomical Twilight 5:34 AM EST 6:51 PM EST
Moon 2:45 AM EST (12/9) 2:20 PM EST (12/9)
Length of Visible Light 11h 22m
Length of Day
10h 32m
Waning Crescent, 19% of the Moon is Illuminated
Dec 9
Waning Crescent
Dec 13
New
Dec 20
First Quarter
Dec 28
Full
Jan 4
Last Quarter

Hourly Weather History & Observations

Time (EST) Temp. Heat Index Dew Point Humidity Pressure Visibility Wind Dir Wind Speed Gust Speed Precip Events Conditions
12:06 AM 75.2 °F - 73.4 °F 94% 30.03 in 10.0 mi SSE 9.2 mph - N/A   Mostly Cloudy
12:53 AM 75.9 °F - 73.9 °F 94% 30.03 in 10.0 mi SE 9.2 mph - N/A   Mostly Cloudy
1:20 AM 75.2 °F - 73.4 °F 94% 30.02 in 10.0 mi SSE 8.1 mph - N/A   Scattered Clouds
1:53 AM 75.0 °F - 73.9 °F 96% 30.02 in 10.0 mi South 4.6 mph - N/A   Partly Cloudy
2:16 AM 75.2 °F - 73.4 °F 94% 30.02 in 10.0 mi SSE 5.8 mph - N/A   Mostly Cloudy
2:43 AM 75.2 °F - 73.4 °F 94% 30.01 in 10.0 mi SE 8.1 mph - N/A   Mostly Cloudy
2:53 AM 75.9 °F - 73.9 °F 94% 30.01 in 10.0 mi SE 8.1 mph - 0.00 in Rain Light Rain
3:53 AM 75.0 °F - 73.9 °F 96% 30.02 in 10.0 mi South 3.5 mph - 0.00 in   Scattered Clouds
4:53 AM 73.9 °F - 73.9 °F 100% 30.02 in 10.0 mi WNW 3.5 mph - 0.00 in   Partly Cloudy
5:53 AM 71.1 °F - 71.1 °F 100% 30.04 in 10.0 mi NNW 5.8 mph - N/A   Partly Cloudy
6:53 AM 70.0 °F - 70.0 °F 100% 30.05 in 10.0 mi Calm Calm - N/A   Clear
7:53 AM 71.1 °F - 71.1 °F 100% 30.07 in 10.0 mi Calm Calm - 0.01 in   Scattered Clouds
8:53 AM 73.0 °F - 73.0 °F 100% 30.09 in 10.0 mi NNW 3.5 mph - N/A   Mostly Cloudy
9:53 AM 78.1 °F - 73.0 °F 84% 30.10 in 10.0 mi Calm Calm - N/A   Scattered Clouds
10:53 AM 78.1 °F - 73.0 °F 84% 30.09 in 10.0 mi WNW 3.5 mph - N/A   Mostly Cloudy
11:53 AM 79.0 °F - 73.0 °F 82% 30.07 in 10.0 mi ESE 4.6 mph - N/A   Mostly Cloudy
12:53 PM 80.1 °F 84.2 °F 73.0 °F 79% 30.04 in 10.0 mi SSE 9.2 mph - N/A   Scattered Clouds
1:53 PM 80.1 °F 84.5 °F 73.9 °F 81% 30.01 in 10.0 mi SSE 9.2 mph - N/A   Mostly Cloudy
2:53 PM 80.1 °F 84.2 °F 73.0 °F 79% 30.01 in 10.0 mi SSE 9.2 mph - N/A   Clear
3:53 PM 79.0 °F - 73.9 °F 84% 30.00 in 10.0 mi South 10.4 mph - N/A   Clear
4:53 PM 78.1 °F - 73.9 °F 87% 30.01 in 10.0 mi SSE 9.2 mph - N/A   Clear
5:53 PM 75.9 °F - 75.0 °F 97% 30.02 in 10.0 mi SSE 8.1 mph - N/A   Clear
6:53 PM 75.9 °F - 75.0 °F 97% 30.04 in 10.0 mi SSE 5.8 mph - N/A   Clear
7:53 PM 75.9 °F - 75.0 °F 97% 30.04 in 10.0 mi SSE 5.8 mph - N/A   Clear
8:53 PM 75.9 °F - 75.0 °F 97% 30.04 in 10.0 mi SSE 6.9 mph - N/A   Clear
9:53 PM 75.0 °F - 75.0 °F 100% 30.04 in 10.0 mi SSE 8.1 mph - N/A   Clear
10:53 PM 75.0 °F - 75.0 °F 100% 30.05 in 10.0 mi SSE 4.6 mph - N/A   Clear
11:41 PM 75.2 °F - 75.2 °F 100% 30.04 in 10.0 mi South 6.9 mph - N/A   Mostly Cloudy
11:49 PM 75.2 °F - 75.2 °F 100% 30.04 in 10.0 mi South 4.6 mph - N/A   Scattered Clouds
11:53 PM 75.0 °F - 75.0 °F 100% 30.04 in 10.0 mi South 4.6 mph - N/A   Partly Cloudy